Location: LDNL
(36.4545°S, 141.6685°E)
Time: 04:35:21
(UTC+11:00)

Vanguard 2 - Pass Details

Date: 16 August 2022
Orbit: 552 x 2934 km, 32.9° (Epoch: 06 October)

Event Time Altitude Azimuth Distance (km) Brightness Sun altitude
Rises 13:47:53 0° 331° (NNW) 6,304 13.1 37.1°
Reaches altitude 10° 13:52:27 10° 339° (NNW) 5,508 13.2 36.8°
Maximum altitude 14:07:03 35° 36° (NE) 4,070 11.9 35.6°
Drops below altitude 10° 14:21:04 10° 93° (E) 5,343 11.6 34.2°
Sets 14:25:20 0° 101° (E) 6,106 11.8 33.7°
